Time_in_sec,gx,gy,gz
1314364069.41361141,0.13264006,0.02177853,-0.99092498
1314364069.47276521,0.13255851,0.02157721,-0.99094029
1314364069.51255131,0.13246499,0.02155521,-0.99095328
1314364069.56117201,0.13245290,0.02151169,-0.99095584
1314364069.62147975,0.13239022,0.02173232,-0.99095940
1314364069.66149259,0.13273004,0.02179413,-0.99091259
1314364069.71279216,0.13258254,0.02176381,-0.99093300
1314364069.76056147,0.13250521,0.02180144,-0.99094251
1314364069.82151151,0.13243669,0.02176267,-0.99095253
1314364069.87290239,0.13206950,0.02177615,-0.99100123
1314364069.92152095,0.13200177,0.02175874,-0.99101064
1314364069.96146822,0.13209757,0.02179958,-0.99099698
1314364070.02052355,0.13207729,0.02189401,-0.99099760
1314364070.06178403,0.13239793,0.02186552,-0.99095544
1314364070.11344957,0.13234618,0.02199856,-0.99095941
1314364070.16059756,0.13242972,0.02189361,-0.99095057
1314364070.22182393,0.13226220,0.02174876,-0.99097614
1314364070.27320194,0.13235619,0.02203795,-0.99095720
1314364070.32052040,0.13214881,0.02200795,-0.99098554
1314364070.37347603,0.13216288,0.02209342,-0.99098176
1314364070.42062664,0.13209956,0.02213624,-0.99098925
1314364070.46120214,0.13213929,0.02192728,-0.99098860
1314364070.51345706,0.13210254,0.02183082,-0.99099563
1314364070.56113195,0.13184055,0.02173037,-0.99103272
1314364070.62148452,0.13140090,0.02215835,-0.99108164
1314364070.67347193,0.13139465,0.02191245,-0.99108793
1314364070.71360707,0.13139255,0.02210170,-0.99108401
1314364070.77344942,0.13123580,0.02228265,-0.99110073
1314364070.82115698,0.13115720,0.02222920,-0.99111233
1314364070.86154795,0.13131511,0.02223683,-0.99109125
1314364070.92147994,0.13138341,0.02225465,-0.99108180
1314364070.96114826,0.13148815,0.02219445,-0.99106926
1314364071.01348543,0.13141957,0.02231502,-0.99107565
1314364071.07253504,0.13144788,0.02229977,-0.99107224
1314364071.11646008,0.13138662,0.02243510,-0.99107730
1314364071.16145396,0.13147237,0.02247173,-0.99106510
1314364071.22047663,0.13123034,0.02217188,-0.99110393
1314364071.26112151,0.13103943,0.02219553,-0.99112866
1314364071.32147956,0.13075516,0.02217223,-0.99116673
1314364071.36160016,0.13056071,0.02224620,-0.99119070
1314364071.42148352,0.13043809,0.02244543,-0.99120235
1314364071.47256541,0.13049377,0.02253449,-0.99119300
1314364071.51652050,0.13032105,0.02253968,-0.99121561
1314364071.56151271,0.13031253,0.02248480,-0.99121798
1314364071.61346984,0.13019971,0.02267632,-0.99122844
1314364071.66161084,0.13011258,0.02266049,-0.99124024
1314364071.71386266,0.13017497,0.02277775,-0.99122936
1314364071.76066971,0.13030181,0.02269063,-0.99121470
1314364071.82149148,0.13019177,0.02277108,-0.99122731
1314364071.86150241,0.13021730,0.02284479,-0.99122226
1314364071.92187381,0.13002957,0.02302353,-0.99124277
1314364071.96153116,0.12995284,0.02326152,-0.99124728
1314364072.01346970,0.13033653,0.02330449,-0.99119589
1314364072.06157374,0.13040708,0.02333194,-0.99118596
1314364072.11272788,0.13017787,0.02323667,-0.99121833
1314364072.16063237,0.13023004,0.02333729,-0.99120911
1314364072.21265793,0.13032644,0.02317666,-0.99120021
1314364072.27252722,0.13055414,0.02325414,-0.99116843
1314364072.31250119,0.13022891,0.02339207,-0.99120797
1314364072.36152697,0.13050595,0.02340623,-0.99117120
1314364072.41304708,0.13035230,0.02339669,-0.99119164
1314364072.46238685,0.13023723,0.02335568,-0.99120774
1314364072.51786017,0.13025283,0.02358085,-0.99120036
1314364072.56109309,0.13040518,0.02362083,-0.99117937
1314364072.61246967,0.13029280,0.02364928,-0.99119347
1314364072.67250252,0.13075097,0.02371593,-0.99113154
1314364072.72123051,0.13067258,0.02354519,-0.99114595
1314364072.76194859,0.13051815,0.02350100,-0.99116735
1314364072.82149339,0.13075049,0.02348766,-0.99113704
1314364072.86149716,0.13087937,0.02354956,-0.99111856
1314364072.91346622,0.13079817,0.02375796,-0.99112431
1314364072.96151567,0.13094311,0.02369416,-0.99110670
1314364073.02047896,0.13070344,0.02353080,-0.99114223
1314364073.07311821,0.13068341,0.02364395,-0.99114217
1314364073.11351728,0.13056285,0.02362885,-0.99115842
1314364073.17346907,0.13071556,0.02372531,-0.99113599
1314364073.22165179,0.13060120,0.02359039,-0.99115429
1314364073.26105118,0.13071706,0.02323685,-0.99114736
1314364073.32271481,0.13057950,0.02333765,-0.99116313
1314364073.36060810,0.13078044,0.02337898,-0.99113566
1314364073.41250420,0.13060226,0.02346415,-0.99115714
1314364073.46149802,0.13037094,0.02350150,-0.99118671
1314364073.51249599,0.13008247,0.02358522,-0.99122262
1314364073.56146812,0.12982608,0.02367414,-0.99125412
1314364073.61249256,0.12988836,0.02340102,-0.99125244
1314364073.67305279,0.12991150,0.02360727,-0.99124452
1314364073.71359921,0.13009493,0.02369553,-0.99121836
1314364073.77307153,0.13012215,0.02380872,-0.99121207
1314364073.81362486,0.13008311,0.02367854,-0.99122031
1314364073.87298656,0.13007426,0.02360093,-0.99122333
1314364073.92102981,0.12984006,0.02371725,-0.99125126
1314364073.96148300,0.12975268,0.02378931,-0.99126097
1314364074.02114081,0.12985702,0.02403076,-0.99124148
1314364074.07250357,0.13003564,0.02401942,-0.99121834
1314364074.12149382,0.12988878,0.02395068,-0.99123926
1314364074.16059113,0.12993319,0.02406656,-0.99123063
1314364074.21250606,0.12988657,0.02400668,-0.99123820
1314364074.27306652,0.12973191,0.02440449,-0.99124873
1314364074.31530547,0.12985469,0.02417025,-0.99123840
1314364074.36146927,0.12983215,0.02439218,-0.99123591
1314364074.42059493,0.12986007,0.02445452,-0.99123072
1314364074.46109128,0.12978401,0.02449345,-0.99123972
1314364074.51347756,0.12976154,0.02469149,-0.99123775
1314364074.56234455,0.12990164,0.02456445,-0.99122255
1314364074.61348104,0.13007619,0.02462618,-0.99119813
1314364074.67320347,0.13003494,0.02465820,-0.99120275
1314364074.72061563,0.13020621,0.02459243,-0.99118190
1314364074.76147032,0.13017055,0.02486681,-0.99117974
1314364074.82146692,0.13027214,0.02482231,-0.99116750
1314364074.86060643,0.13021129,0.02516425,-0.99116688
1314364074.91046548,0.13029496,0.02513594,-0.99115660
1314364074.96114612,0.13044046,0.02499756,-0.99114096
1314364075.01273537,0.13019252,0.02483438,-0.99117766
1314364075.06146336,0.13027193,0.02474833,-0.99116938
1314364075.12067628,0.13019441,0.02508340,-0.99117115
1314364075.16149616,0.13011712,0.02499115,-0.99118362
1314364075.21361470,0.13011583,0.02492162,-0.99118554
1314364075.26063704,0.13009098,0.02496385,-0.99118774
1314364075.31345987,0.13001469,0.02480743,-0.99120168
1314364075.36158013,0.12997274,0.02488884,-0.99120514
1314364075.41357827,0.13003481,0.02475227,-0.99120042
1314364075.47349358,0.13008717,0.02465449,-0.99119599
1314364075.51249766,0.13008613,0.02448978,-0.99120021
1314364075.56151581,0.13012500,0.02432817,-0.99119908
1314364075.61363149,0.12993786,0.02430494,-0.99122420
1314364075.66063690,0.12985721,0.02425691,-0.99123595
1314364075.71350622,0.12992272,0.02446910,-0.99122215
1314364075.76095772,0.12975154,0.02447956,-0.99124431
1314364075.82147360,0.12959706,0.02448963,-0.99126427
1314364075.87305260,0.12957922,0.02457759,-0.99126443
1314364075.92048049,0.12990595,0.02455690,-0.99122218
1314364075.96147513,0.12987578,0.02446636,-0.99122837
1314364076.02050400,0.12989948,0.02453609,-0.99122354
1314364076.06047225,0.13004753,0.02467586,-0.99120066
1314364076.11349797,0.13001513,0.02482830,-0.99120110
1314364076.16149354,0.13018389,0.02502012,-0.99117413
1314364076.22145343,0.13030631,0.02500919,-0.99115832
1314364076.27292538,0.13035787,0.02505568,-0.99115036
1314364076.31248784,0.13010013,0.02482429,-0.99119005
1314364076.36151624,0.12994399,0.02479801,-0.99121119
1314364076.42048717,0.12983246,0.02487631,-0.99122384
1314364076.46101260,0.12978781,0.02497508,-0.99122720
1314364076.51420832,0.12985954,0.02479221,-0.99122240
1314364076.56103635,0.12997818,0.02485088,-0.99120538
1314364076.61415076,0.13001212,0.02482100,-0.99120168
1314364076.66048384,0.13020062,0.02471184,-0.99117966
1314364076.72060323,0.13026895,0.02489124,-0.99116620
1314364076.77344275,0.13034507,0.02501151,-0.99115316
1314364076.81346202,0.13047480,0.02472144,-0.99114337
1314364076.87253928,0.13056890,0.02476376,-0.99112992
1314364076.91381431,0.13037669,0.02456021,-0.99116029
1314364076.96163869,0.13056830,0.02457172,-0.99113478
1314364077.01247978,0.13064921,0.02468931,-0.99112120
1314364077.07246351,0.13081394,0.02479364,-0.99109686
1314364077.11274123,0.13094282,0.02449785,-0.99108720
1314364077.16090059,0.13106808,0.02446507,-0.99107145
1314364077.21247602,0.13129203,0.02451522,-0.99104057
1314364077.26057386,0.13115670,0.02461881,-0.99105592
1314364077.31424689,0.13122426,0.02461830,-0.99104699
1314364077.36058855,0.13125086,0.02444566,-0.99104774
1314364077.41360021,0.13148186,0.02446388,-0.99101667
1314364077.47354770,0.13153250,0.02434410,-0.99101290
1314364077.51273966,0.13144993,0.02418071,-0.99102786
1314364077.56147575,0.13135829,0.02428910,-0.99103735
1314364077.62097144,0.13140091,0.02449400,-0.99102666
1314364077.66151810,0.13147621,0.02466740,-0.99101237
1314364077.71347284,0.13151549,0.02468646,-0.99100669
1314364077.76091218,0.13139436,0.02461387,-0.99102456
1314364077.81349325,0.13135610,0.02453577,-0.99103157
1314364077.86087227,0.13131602,0.02461188,-0.99103499
1314364077.91300559,0.13133057,0.02457101,-0.99103408
1314364077.96146846,0.13120854,0.02467753,-0.99104760
1314364078.01263142,0.13131707,0.02481666,-0.99102975
1314364078.06048894,0.13115507,0.02504225,-0.99104553
1314364078.12148643,0.13118134,0.02514257,-0.99103951
1314364078.16161513,0.13115098,0.02530698,-0.99103934
1314364078.21267271,0.13122296,0.02528279,-0.99103043
1314364078.26087952,0.13101986,0.02528335,-0.99105729
1314364078.31299663,0.13132179,0.02518772,-0.99101976
1314364078.36146569,0.13134771,0.02506834,-0.99101935
1314364078.41249204,0.13127297,0.02533220,-0.99102255
1314364078.46099520,0.13106390,0.02544176,-0.99104741
1314364078.51347399,0.13136782,0.02570887,-0.99100028
1314364078.56261444,0.13140693,0.02569252,-0.99099552
1314364078.61253166,0.13131790,0.02565196,-0.99100837
1314364078.67344737,0.13148290,0.02568703,-0.99098558
1314364078.72059631,0.13151281,0.02566521,-0.99098218
1314364078.76151085,0.13147426,0.02555199,-0.99099022
1314364078.82085514,0.13165092,0.02543151,-0.99096987
1314364078.86060047,0.13173833,0.02532249,-0.99096104
1314364078.91348982,0.13191946,0.02548200,-0.99093285
1314364078.96090412,0.13179563,0.02538249,-0.99095189
1314364079.02146530,0.13180021,0.02546169,-0.99094925
1314364079.07353640,0.13176311,0.02535451,-0.99095693
1314364079.12062788,0.13181267,0.02548801,-0.99094691
1314364079.16153026,0.13187871,0.02545144,-0.99093906
1314364079.21285510,0.13189188,0.02553964,-0.99093504
1314364079.26063466,0.13196643,0.02576474,-0.99091929
1314364079.31348634,0.13216621,0.02590932,-0.99088889
1314364079.36162686,0.13221129,0.02587771,-0.99088371
1314364079.41261363,0.13218000,0.02593398,-0.99088641
1314364079.46145940,0.13210335,0.02606588,-0.99089317
1314364079.51251936,0.13198188,0.02610918,-0.99090822
1314364079.56149864,0.13197522,0.02587594,-0.99091522
1314364079.62080860,0.13198680,0.02591270,-0.99091272
1314364079.66152000,0.13192821,0.02601301,-0.99091789
1314364079.71746111,0.13193335,0.02615470,-0.99091348
1314364079.76086044,0.13167605,0.02617145,-0.99094726
1314364079.81350279,0.13151013,0.02622781,-0.99096780
1314364079.86150408,0.13176921,0.02627129,-0.99093224
1314364079.91262722,0.13172844,0.02610498,-0.99094205
1314364079.96151137,0.13170144,0.02634321,-0.99093934
1314364080.01290655,0.13190028,0.02583921,-0.99092616
1314364080.06084251,0.13167587,0.02586077,-0.99095544
1314364080.12146235,0.13133624,0.02567837,-0.99100525
1314364080.16157484,0.13145009,0.02568412,-0.99099001
1314364080.21266937,0.13133841,0.02569512,-0.99100453
1314364080.27283764,0.13136314,0.02562260,-0.99100313
1314364080.31360912,0.13173040,0.02565904,-0.99095344
1314364080.36150432,0.13160842,0.02538761,-0.99097664
1314364080.41259193,0.13163442,0.02550789,-0.99097009
1314364080.46077633,0.13180771,0.02554091,-0.99094621
1314364080.51072669,0.13184400,0.02533199,-0.99094674
1314364080.56047583,0.13170030,0.02541558,-0.99096371
1314364080.62145519,0.13148544,0.02541983,-0.99099213
1314364080.67289758,0.13144071,0.02556480,-0.99099434
1314364080.71361780,0.13135743,0.02573376,-0.99100101
1314364080.76151943,0.13148260,0.02566451,-0.99098621
1314364080.81288147,0.13123963,0.02591009,-0.99101202
1314364080.86049724,0.13113486,0.02590302,-0.99102608
1314364080.91347694,0.13114529,0.02593852,-0.99102377
1314364080.96050310,0.13118289,0.02584483,-0.99102124
1314364081.01390886,0.13112908,0.02575513,-0.99103069
1314364081.07349443,0.13087467,0.02578591,-0.99106352
1314364081.11352110,0.13090425,0.02568686,-0.99106219
1314364081.17349839,0.13087481,0.02590580,-0.99106038
1314364081.22195172,0.13083039,0.02602668,-0.99106308
1314364081.26160669,0.13091515,0.02598744,-0.99105291
1314364081.31287408,0.13087240,0.02585002,-0.99106215
1314364081.36076713,0.13077896,0.02549352,-0.99108372
1314364081.41247439,0.13065130,0.02554826,-0.99109915
1314364081.46147656,0.13074185,0.02543207,-0.99109020
1314364081.51250696,0.13059149,0.02573628,-0.99110217
1314364081.56150246,0.13050251,0.02585030,-0.99111092
1314364081.62153649,0.13034315,0.02618273,-0.99112316
1314364081.66158009,0.13064504,0.02633027,-0.99107951
1314364081.71346951,0.13075639,0.02627092,-0.99106640
1314364081.76172447,0.13060194,0.02645577,-0.99108185
1314364081.81261230,0.13056228,0.02630380,-0.99109112
1314364081.87277842,0.13032576,0.02640058,-0.99111967
1314364081.92166662,0.13027923,0.02655215,-0.99112174
1314364081.96152020,0.13026441,0.02621236,-0.99113273
1314364082.01350451,0.13007517,0.02641343,-0.99115225
1314364082.06062961,0.13043466,0.02648972,-0.99110297
1314364082.11347580,0.13039316,0.02668957,-0.99110307
1314364082.16159391,0.13047817,0.02661331,-0.99109393
1314364082.21347761,0.13030208,0.02643711,-0.99112181
1314364082.27247214,0.13044457,0.02664271,-0.99109756
1314364082.31366634,0.13043458,0.02666601,-0.99109825
1314364082.36147594,0.13081929,0.02670730,-0.99104643
1314364082.41269922,0.13090420,0.02670282,-0.99103534
1314364082.46145630,0.13061113,0.02672859,-0.99107332
1314364082.52152085,0.13075962,0.02687171,-0.99104986
1314364082.56064630,0.13084635,0.02696724,-0.99103582
1314364082.61246371,0.13088071,0.02698565,-0.99103078
1314364082.67274666,0.13092182,0.02693052,-0.99102685
1314364082.71360254,0.13113258,0.02663596,-0.99100695
1314364082.76152873,0.13116855,0.02674543,-0.99099924
1314364082.82081079,0.13115372,0.02656898,-0.99100595
1314364082.86154056,0.13103731,0.02697387,-0.99101041
1314364082.91289783,0.13091901,0.02701419,-0.99102495
1314364082.96071053,0.13097546,0.02730973,-0.99100939
1314364083.01284838,0.13110711,0.02735249,-0.99099080
1314364083.06446767,0.13117841,0.02715262,-0.99098686
1314364083.11263204,0.13133265,0.02705616,-0.99096907
1314364083.16147113,0.13130701,0.02717070,-0.99096933
1314364083.21247673,0.13114044,0.02744475,-0.99098384
1314364083.26048732,0.13135446,0.02755508,-0.99095243
1314364083.32153344,0.13119350,0.02722403,-0.99098290
1314364083.36068654,0.13142923,0.02733214,-0.99094869
1314364083.41255927,0.13179523,0.02718443,-0.99090415
1314364083.47351003,0.13162510,0.02737359,-0.99092155
1314364083.50970483,0.13161043,0.02730878,-0.99092529
1314364083.56147933,0.13180572,0.02725631,-0.99090077
1314364083.62168789,0.13171046,0.02742679,-0.99090874
1314364083.66080904,0.13147856,0.02725960,-0.99094415
1314364083.71346283,0.13118062,0.02726668,-0.99098344
1314364083.76152539,0.13109675,0.02715950,-0.99099748
1314364083.82151985,0.13091464,0.02722080,-0.99101987
1314364083.86148381,0.13085258,0.02720525,-0.99102849
1314364083.91250730,0.13077919,0.02715987,-0.99103943
1314364083.96146441,0.13088145,0.02737330,-0.99102005
1314364084.01270771,0.13091594,0.02737134,-0.99101555
1314364084.06150460,0.13102058,0.02770022,-0.99099259
1314364084.11358190,0.13119837,0.02780051,-0.99096626
1314364084.16161704,0.13112903,0.02782566,-0.99097473
1314364084.21276379,0.13108796,0.02805503,-0.99097369
1314364084.27271867,0.13108431,0.02833704,-0.99096615
1314364084.31367826,0.13084199,0.02864987,-0.99098918
1314364084.36146832,0.13107836,0.02859399,-0.99095956
1314364084.42155933,0.13107512,0.02866306,-0.99095799
1314364084.46207142,0.13086871,0.02880405,-0.99098118
1314364084.51345778,0.13098481,0.02849073,-0.99097490
1314364084.56067586,0.13084132,0.02846558,-0.99099458
1314364084.61276579,0.13088043,0.02839961,-0.99099131
1314364084.66050863,0.13084383,0.02844315,-0.99099489
1314364084.72050405,0.13091376,0.02857953,-0.99098173
1314364084.76147938,0.13060241,0.02852120,-0.99102450
1314364084.82158065,0.13041377,0.02852292,-0.99104929
1314364084.86067724,0.13019242,0.02822582,-0.99108690
1314364084.91345525,0.13033404,0.02829486,-0.99106631
1314364084.96270680,0.13064059,0.02842107,-0.99102234
1314364085.01265240,0.13072722,0.02834502,-0.99101309
1314364085.06149554,0.13089093,0.02823345,-0.99099467
1314364085.11269307,0.13077277,0.02814979,-0.99101265
1314364085.16175199,0.13059872,0.02819485,-0.99103432
1314364085.21265149,0.13053375,0.02827549,-0.99104058
1314364085.26068711,0.13036605,0.02832426,-0.99106126
1314364085.31352472,0.13037451,0.02820550,-0.99106354
1314364085.36063409,0.13041963,0.02810210,-0.99106054
1314364085.41252661,0.13028105,0.02812713,-0.99107806
1314364085.47269344,0.13029793,0.02757663,-0.99109131
1314364085.51362944,0.13032785,0.02780064,-0.99108111
1314364085.56146979,0.13038069,0.02777301,-0.99107494
1314364085.62095165,0.13051287,0.02768964,-0.99105987
1314364085.66210604,0.13060298,0.02750742,-0.99105308
1314364085.71347475,0.13059124,0.02747844,-0.99105543
1314364085.76066113,0.13045350,0.02755991,-0.99107131
1314364085.82052922,0.13050844,0.02761110,-0.99106265
1314364085.87261271,0.13057507,0.02754538,-0.99105570
1314364085.91364121,0.13040950,0.02772568,-0.99107247
1314364085.96148801,0.13018856,0.02741228,-0.99111024
1314364086.01347089,0.13015449,0.02758664,-0.99110988
1314364086.06059551,0.13022746,0.02762383,-0.99109925
1314364086.11429882,0.13029636,0.02750190,-0.99109359
1314364086.16147423,0.13021915,0.02763230,-0.99110011
1314364086.21259260,0.13036448,0.02764973,-0.99108052
1314364086.26149583,0.13049190,0.02766839,-0.99106323
1314364086.31252050,0.13046217,0.02742161,-0.99107400
1314364086.36145329,0.13036327,0.02770410,-0.99107916
1314364086.41259480,0.13047297,0.02768640,-0.99106522
1314364086.46489310,0.13054705,0.02789510,-0.99104961
1314364086.51347089,0.13048291,0.02786920,-0.99105879
1314364086.56449842,0.13027990,0.02772174,-0.99108963
1314364086.61258507,0.13030858,0.02780604,-0.99108350
1314364086.67349052,0.13040786,0.02795060,-0.99106637
1314364086.71358132,0.13032177,0.02798047,-0.99107685
1314364086.76146269,0.13045344,0.02814448,-0.99105489
1314364086.82174850,0.13037606,0.02808224,-0.99106683
1314364086.86061525,0.13035588,0.02819714,-0.99106623
1314364086.92149711,0.13037511,0.02811159,-0.99106613
1314364086.96059203,0.13019151,0.02796962,-0.99109428
1314364087.01257300,0.12995677,0.02779240,-0.99113007
1314364087.06148386,0.13001315,0.02782504,-0.99112176
1314364087.12106395,0.13004802,0.02785270,-0.99111641
1314364087.16148114,0.13009566,0.02757591,-0.99111790
1314364087.22152567,0.13018208,0.02757321,-0.99110663
1314364087.26053786,0.13024132,0.02774577,-0.99109403
